sat.trackr.live / text

‹ back to catalog

ONEWEB-0167

NORAD 48064 · 2021-025Y

PAYLOAD ACTIVE UNKNOWN

§ Identity

Operator
Country
UK
Launch date
2021-03-25
Launch site
VOSTO
Launch vehicle
Mass (kg)
RCS (m²)

Purposes: comms

External: N2YO · Heavens-Above · Gunter

§ Orbital elements

Epoch: 2026-05-25T04:40:15.775392Z

Period
109.63 min
Inclination
87.8941°
Eccentricity
0.0001117
Mean motion
13.13470878 rev/d
Perigee alt
1,208.9 km
Apogee alt
1,210.6 km
Semi-major
7,587.9 km
B*
2.9801e-4
RAAN
324.8117°
Arg perigee
93.4800°
Mean anomaly
266.6457°
Rev number
25,055

§ Raw data

ONEWEB-01671 48064U 21025Y   26145.19462703  .00000122  00000+0  29801-3 0  99992 48064  87.8941 324.8117 0001117  93.4800 266.6457 13.13470878250556

JSON: /api/v1/satellites/48064 · /tle

For live sub-satellite position, see the globe view (requires WebGL).

§ Visibility from observer

Set your observer location to see the next 7 days of passes ≥ 10°. The values pass through the URL so the page stays shareable.

No JS? Fill the form by hand. The geolocation button needs JavaScript.